Orbital Elements at Epoch 2459000.5 (2020-May-31.0) TDB
Reference: JPL 20 (heliocentric ecliptic J2000)
Element | Value | Uncertainty (1-sigma) | Units |
e | .1942258121126111 | 5.1518e-08 | |
a | 2.204159763696804 | 1.2823e-08 | au |
q | 1.776055043566851 | 1.1726e-07 | au |
i | 5.827023071328825 | 5.5905e-06 | deg |
node | 115.7352200532983 | 4.9837e-05 | deg |
peri | 250.5797825089134 | 5.1649e-05 | deg |
M | 24.11769622671408 | 1.4996e-05 | deg |
tp | 2458920.425109742889 (2020-Mar-11.92510974) | 4.9401e-05 | TDB |
period | 1195.261778802475 3.27 | 1.0431e-05 2.856e-08 | d yr |
n | .3011892510782715 | 2.6284e-09 | deg/d |
Q | 2.632264483826757 | 1.5314e-08 | au |
|
| | Orbit Determination Parameters
Additional Information
|